User: anonymous   Login
Location: Asheville, NC
(35.6000°N, 82.5500°W)
Time: 08:11:42
(UTC-04:00)
Language:

Gurwin Techsat 1B - Orbit

View from above orbital plane
View from above orbital plane
View from above satellite
View from above satellite

Ground track
Ground track

The orbit data is extracted from the following two-line orbital elements,

1 25397U 98043D   18198.81500631 -.00000017 +00000-0 +11568-4 0  9995
2 25397 098.6507 138.7491 0000530 357.6283 002.4893 14.23648361039868
Epoch (UTC): 17 July 2018 19:33:36
Eccentricity: 0.0000530
inclination: 98.6507°
perigee height: 812 km
apogee height: 813 km
right ascension of ascending node: 138.7491°
argument of perigee: 357.6283°
revolutions per day: 14.23648361
mean anomaly at epoch: 2.4893°
orbit number at epoch: 3986

The dashed part of the orbit path shows where the satellite is in the earth's shadow,  

DLR